Flag for Canada Weather past 2 weeks in Colchester County, Nova Scotia, Canada

Now
59 °F

Partly sunny.


Feels Like: 59 °F
Forecast: N/A
Wind: 5 mph from Southeast

Location: Halifax International Airport

Current Time: Sep 30, 2014 at 5:41:06 PM

Latest Report: Sep 30, 2014 at 5:00 PM


Visibility: 15 mi

Pressure: 30.06 "Hg

Humidity: 94%

Dew point: 57 °F

Location of Colchester CountyLocation

Historic Weather in Colchester County — Graph

°F

Colchester County temperature yesterday

Maximum temperature yesterday: 63 °F (at 2:00 PM)
Minimum temperature yesterday: 48 °F (at 10:00 PM)
Average temperature yesterday: 56 °F

Past Weeks' High & Low Weather Summary

 TemperatureHumidityPressure
High77 °F (Sep 28, 3:00 PM)100% (Sep 18, 12:00 AM)30.61 "Hg (Sep 18, 12:00 AM)
Low37 °F (Sep 19, 7:00 AM)27% (Sep 25, 1:00 PM)29.38 "Hg (Sep 22, 5:55 AM)
Average56 °F75%30.09 "Hg
* Reported Sep 15 4:00 PM — Sep 30 4:00 PM, Colchester County, Weather by CustomWeather, © 2014

Note: Actual official high and low records may vary slightly from our data, if they occured in-between our weather recording intervals... More about our weather records

Advertising

Colchester County weather history for previous 24 hours

 ConditionsComfort  
Time TempWeatherWind HumidityBarometerVisibility
4:00 PM
Sep 30
61 °FLow clouds.8 mph83%30.06 "Hg15 mi
3:00 PM59 °FOvercast.7 mph88%30.07 "Hg15 mi
2:00 PM59 °FLow clouds.10 mph88%30.07 "Hg15 mi
12:00 PM55 °FFog.12 mph100%30.09 "Hg3 mi
11:00 AM54 °FDrizzle. Fog.9 mph100%30.10 "Hg1 mi
10:00 AM52 °FSprinkles. Fog.9 mph100%30.11 "Hg2 mi
9:00 AM52 °FFog.7 mph94%30.11 "Hg3 mi
8:00 AM50 °FFog.6 mph100%30.11 "Hg3 mi
7:00 AM50 °FFog.9 mph94%30.10 "Hg3 mi
6:00 AM48 °FDrizzle. Fog.6 mph100%30.10 "Hg1 mi
5:00 AM48 °FDrizzle. Fog.7 mph94%30.11 "Hg3 mi
4:00 AM48 °FDrizzle. Low clouds.8 mph94%30.11 "Hg7 mi
3:00 AM48 °FOvercast.6 mph87%30.14 "Hg15 mi
2:00 AM48 °FOvercast.6 mph87%30.13 "Hg15 mi
1:00 AM48 °FOvercast.8 mph87%30.13 "Hg15 mi
12:00 AM48 °FOvercast.6 mph82%30.16 "Hg15 mi
11:00 PM
Sep 29
48 °FOvercast.9 mph82%30.16 "Hg15 mi
10:00 PM48 °FOvercast.8 mph82%30.19 "Hg15 mi
9:00 PM50 °FOvercast.8 mph76%30.19 "Hg15 mi
8:00 PM50 °FOvercast.12 mph71%30.16 "Hg15 mi
7:00 PM50 °FOvercast.13 mph71%30.15 "Hg15 mi
6:00 PM52 °FMostly cloudy.15 mph72%30.13 "Hg15 mi
5:00 PM54 °FMostly cloudy.15 mph67%30.13 "Hg15 mi
Weather by CustomWeather, © 2014

See weather overviewHow to use our weather pages